Regional Weather Roundup
Issued by NWS

Home | Current Version | Previous Version | Text Only | Print | Product List | Glossary Off
Versions: 1 2 3 4 5 6 7 8 9 10 11 12 13 14 15 16 17 18 19 20 21 22 23 24 25 26 27 28 29 30 31 32 33 34 35 36 37 38 39 40 41 42 43 44 45 46 47 48 49 50

000
ASUS45 KBOI 232110
RWRID
WEATHER ROUNDUP FOR IDAHO
NATIONAL WEATHER SERVICE BOISE ID
300 PM MDT TUE SEP 23 2014

NOTE: "FAIR" INDICATES FEW OR NO CLOUDS BELOW 12000 FEET
WITH NO SIGNIFICANT WEATHER AND/OR OBSTRUCTIONS TO VISIBILITY

IDZ012-014-232200-
SOUTHWEST IDAHO


CITY           SKY/WX    TMP DP  RH WIND       PRES   REMARKS
BOISE          CLOUDY    86  46  24 W5        29.96F
CALDWELL       CLOUDY    81  52  36 CALM      29.98F
MOUNTAIN HOME  MOSUNNY   85  51  30 E15       29.96F
$$

IDZ016-017-232200-
SOUTHCENTRAL IDAHO


CITY           SKY/WX    TMP DP  RH WIND       PRES   REMARKS
BURLEY         SUNNY     81  48  31 CALM      30.07F
JEROME         MOSUNNY   81  46  29 E7        30.07F
TWIN FALLS     MOSUNNY   82  52  35 NE12      30.06F
$$

IDZ019>023-232200-
SOUTHEAST IDAHO


CITY           SKY/WX    TMP DP  RH WIND       PRES   REMARKS
IDAHO FALLS    SUNNY     77  47  34 SW12      30.15F
POCATELLO      MOSUNNY   81  50  33 W3        30.13F
REXBURG        SUNNY     72  48  42 CALM      30.16F
$$

IDZ006-010-011-018-031-032-232200-
CENTRAL IDAHO MOUNTAINS


CITY           SKY/WX    TMP DP  RH WIND       PRES   REMARKS
MCCALL         PTSUNNY   71  49  45 S14       30.07F
HAILEY         PTSUNNY   70  54  56 SE10      30.18F
STANLEY          N/A     71  40  32 SE8       30.19F
SALMON         PTSUNNY   70  54  56 N5        30.03S
CHALLIS        PTSUNNY   69  51  52 N3        30.09F
$$

IDZ002-004-006-007-026-232200-
NORTHERN IDAHO


CITY           SKY/WX    TMP DP  RH WIND       PRES   REMARKS
LEWISTON       CLOUDY    80  58  46 CALM      29.87F
LOWELL           N/A     77  54  44 CALM      29.91F
COEUR D`ALENE  CLOUDY    73  55  53 N9        29.90F
MULLAN PASS    PTSUNNY   64  47  53 VRB6      30.10S
$$



USA.gov is the U.S. government's official web portal to all federal, state and local government web resources and services.